Hourly Weather Kozubec

Today, 26 January, Tuesday

Time Temperature Precipitation Wind Pressure Humidity
00:00 +1°C° 0.9 mm 6 mps 731 mmHg 95%
01:00 +1°C° 0.9 mm 6 mps 730 mmHg 95%
02:00 +1°C° 0.9 mm 6 mps 730 mmHg 95%
03:00 +1°C° 0.4 mm 6 mps 729 mmHg 95%
04:00 +1°C° 0.4 mm 6 mps 729 mmHg 95%
05:00 +1°C° 0.4 mm 6 mps 728 mmHg 95%
06:00 +1°C° 0.4 mm 6 mps 728 mmHg 95%
07:00 +1°C° 0.4 mm 6 mps 727 mmHg 94%
08:00 +1°C° 0 mm 6 mps 727 mmHg 94%
09:00 +1°C° 0.4 mm 6 mps 727 mmHg 94%
10:00 +1°C° 0.4 mm 6 mps 726 mmHg 95%
11:00 +1°C° 0.4 mm 5 mps 726 mmHg 96%
12:00 +1°C° 0.2 mm 5 mps 726 mmHg 96%
13:00 +1°C° 0.2 mm 5 mps 725 mmHg 96%
14:00 +1°C° 0 mm 5 mps 725 mmHg 97%
15:00 0°C° 0.2 mm 5 mps 725 mmHg 97%
16:00 -1°C° 0.2 mm 4 mps 725 mmHg 97%
17:00 -1°C° 0.2 mm 4 mps 725 mmHg 96%
18:00 -2°C° 0.1 mm 4 mps 725 mmHg 96%
19:00 -1°C° 0.1 mm 3 mps 725 mmHg 95%
20:00 -1°C° 0.1 mm 2 mps 725 mmHg 94%
21:00 -2°C° 0 mm 2 mps 726 mmHg 95%
22:00 -2°C° 0 mm 2 mps 726 mmHg 95%
23:00 0°C° 0 mm 1 mps 727 mmHg 96%

Tomorrow, 27 January, Wednesday

Time Temperature Precipitation Wind Pressure Humidity
00:00 0°C° 0.2 mm 1 mps 727 mmHg 96%
01:00 -2°C° 0.2 mm 2 mps 728 mmHg 97%
02:00 -2°C° 0.2 mm 2 mps 728 mmHg 97%
03:00 -2°C° 0.3 mm 3 mps 729 mmHg 96%
04:00 -3°C° 0.3 mm 4 mps 730 mmHg 96%
05:00 -2°C° 0.3 mm 4 mps 731 mmHg 95%
06:00 -4°C° 0.1 mm 5 mps 732 mmHg 94%
07:00 -4°C° 0.1 mm 5 mps 732 mmHg 93%
08:00 -4°C° 0.1 mm 6 mps 733 mmHg 93%
09:00 -2°C° 0.1 mm 5 mps 734 mmHg 91%
10:00 -2°C° 0.1 mm 5 mps 734 mmHg 89%
11:00 -2°C° 0.1 mm 5 mps 735 mmHg 87%
12:00 -2°C° 0 mm 5 mps 735 mmHg 87%
13:00 -2°C° 0 mm 5 mps 735 mmHg 88%
14:00 -2°C° 0 mm 4 mps 736 mmHg 88%
15:00 -2°C° 0 mm 4 mps 736 mmHg 91%
16:00 -2°C° 0 mm 4 mps 736 mmHg 93%
17:00 -1°C° 0 mm 3 mps 737 mmHg 95%
18:00 -1°C° 0 mm 3 mps 737 mmHg 95%
19:00 -1°C° 0 mm 3 mps 737 mmHg 95%
20:00 -1°C° 0 mm 3 mps 737 mmHg 95%
21:00 -1°C° 0 mm 2 mps 738 mmHg 95%
22:00 -2°C° 0 mm 2 mps 738 mmHg 95%
23:00 -2°C° 0 mm 2 mps 738 mmHg 95%

Day after tomorrow, 28 January, Thursday

Time Temperature Precipitation Wind Pressure Humidity
00:00 0°C° 0 mm 1 mps 738 mmHg 95%
01:00 0°C° 0 mm 1 mps 738 mmHg 95%
02:00 0°C° 0 mm 1 mps 738 mmHg 95%
03:00 0°C° 0 mm 1 mps 738 mmHg 95%
04:00 0°C° 0 mm 1 mps 738 mmHg 95%
05:00 0°C° 0 mm 1 mps 738 mmHg 95%
06:00 0°C° 0 mm 1 mps 738 mmHg 95%
07:00 0°C° 0 mm 1 mps 738 mmHg 95%
08:00 0°C° 0 mm 1 mps 738 mmHg 95%
09:00 0°C° 0 mm 1 mps 738 mmHg 94%
10:00 -2°C° 0 mm 2 mps 737 mmHg 93%
11:00 -1°C° 0 mm 2 mps 737 mmHg 92%
12:00 -1°C° 0 mm 2 mps 737 mmHg 92%
13:00 +1°C° 0 mm 1 mps 737 mmHg 91%
14:00 +1°C° 0 mm 1 mps 736 mmHg 90%
15:00 +1°C° 0 mm 1 mps 736 mmHg 92%
16:00 0°C° 0 mm 1 mps 735 mmHg 93%
17:00 0°C° 0 mm 1 mps 735 mmHg 95%
18:00 0°C° 0.1 mm 1 mps 735 mmHg 95%
19:00 0°C° 0.1 mm 1 mps 734 mmHg 96%
20:00 -1°C° 0.1 mm 0 mps 734 mmHg 96%
21:00 -1°C° 0.4 mm 0 mps 733 mmHg 96%
22:00 -1°C° 0.4 mm 0 mps 733 mmHg 97%
23:00 -1°C° 0.4 mm 0 mps 733 mmHg 97%

29 January, Friday

Time Temperature Precipitation Wind Pressure Humidity
00:00 -1°C° 0.3 mm 0 mps 732 mmHg 97%
01:00 -1°C° 0.3 mm 1 mps 732 mmHg 97%
02:00 -1°C° 0.3 mm 1 mps 731 mmHg 97%
03:00 -1°C° 0.3 mm 1 mps 731 mmHg 96%
04:00 -3°C° 0.3 mm 2 mps 730 mmHg 95%
05:00 -3°C° 0.3 mm 2 mps 730 mmHg 94%
06:00 -4°C° 0.1 mm 2 mps 730 mmHg 94%
07:00 -4°C° 0.1 mm 2 mps 729 mmHg 93%
08:00 -5°C° 0.1 mm 2 mps 729 mmHg 93%
09:00 -5°C° 0 mm 2 mps 729 mmHg 92%
10:00 -5°C° 0 mm 2 mps 728 mmHg 91%
11:00 -6°C° 0 mm 3 mps 728 mmHg 90%
12:00 -5°C° 0.1 mm 2 mps 728 mmHg 89%
13:00 -4°C° 0.1 mm 2 mps 728 mmHg 89%
14:00 -4°C° 0.1 mm 2 mps 727 mmHg 89%
15:00 -5°C° 0 mm 3 mps 727 mmHg 89%
16:00 -5°C° 0 mm 3 mps 727 mmHg 89%
17:00 -5°C° 0 mm 3 mps 727 mmHg 89%
18:00 -5°C° 0 mm 2 mps 727 mmHg 90%
19:00 -5°C° 0 mm 2 mps 727 mmHg 91%
20:00 -5°C° 0 mm 2 mps 727 mmHg 91%
21:00 -6°C° 0.1 mm 3 mps 727 mmHg 91%
22:00 -6°C° 0.1 mm 3 mps 727 mmHg 91%
23:00 -6°C° 0.1 mm 3 mps 728 mmHg 91%

30 January, Saturday

Time Temperature Precipitation Wind Pressure Humidity
00:00 -8°C° 0 mm 4 mps 728 mmHg 91%
01:00 -8°C° 0 mm 4 mps 728 mmHg 91%
02:00 -8°C° 0 mm 4 mps 728 mmHg 90%
03:00 -9°C° 0 mm 4 mps 728 mmHg 90%
04:00 -9°C° 0 mm 4 mps 728 mmHg 89%
05:00 -9°C° 0 mm 4 mps 728 mmHg 89%
06:00 -9°C° 0 mm 4 mps 728 mmHg 89%
07:00 -9°C° 0 mm 4 mps 728 mmHg 90%
08:00 -9°C° 0 mm 4 mps 729 mmHg 90%
09:00 -9°C° 0 mm 4 mps 729 mmHg 90%
10:00 -10°C° 0 mm 5 mps 729 mmHg 89%
11:00 -8°C° 0 mm 5 mps 729 mmHg 88%
12:00 -8°C° 0 mm 5 mps 729 mmHg 88%
13:00 -7°C° 0 mm 5 mps 729 mmHg 87%
14:00 -7°C° 0 mm 5 mps 729 mmHg 87%
15:00 -7°C° 0 mm 5 mps 730 mmHg 87%
16:00 -7°C° 0 mm 5 mps 730 mmHg 87%
17:00 -7°C° 0 mm 4 mps 730 mmHg 87%
18:00 -7°C° 0 mm 4 mps 730 mmHg 85%
19:00 -7°C° 0 mm 4 mps 730 mmHg 84%
20:00 -7°C° 0 mm 4 mps 730 mmHg 83%
21:00 -8°C° 0 mm 4 mps 731 mmHg 86%
22:00 -7°C° 0 mm 3 mps 731 mmHg 88%
23:00 -8°C° 0 mm 3 mps 731 mmHg 90%

31 January, Sunday

Time Temperature Precipitation Wind Pressure Humidity
00:00 -8°C° 0 mm 3 mps 731 mmHg 91%
01:00 -9°C° 0 mm 3 mps 732 mmHg 92%
02:00 -9°C° 0 mm 3 mps 732 mmHg 93%
03:00 -9°C° 0 mm 3 mps 732 mmHg 93%
04:00 -9°C° 0 mm 3 mps 732 mmHg 94%
05:00 -10°C° 0 mm 3 mps 732 mmHg 94%
06:00 -9°C° 0 mm 2 mps 733 mmHg 94%
07:00 -9°C° 0 mm 2 mps 733 mmHg 94%
08:00 -10°C° 0 mm 2 mps 733 mmHg 93%
09:00 -9°C° 0 mm 2 mps 734 mmHg 91%
10:00 -8°C° 0 mm 2 mps 734 mmHg 89%
11:00 -7°C° 0 mm 2 mps 735 mmHg 87%
12:00 -8°C° 0 mm 3 mps 735 mmHg 86%
13:00 -7°C° 0 mm 3 mps 735 mmHg 85%
14:00 -7°C° 0 mm 3 mps 735 mmHg 84%
15:00 -6°C° 0 mm 2 mps 735 mmHg 87%
16:00 -7°C° 0 mm 2 mps 735 mmHg 90%
17:00 -8°C° 0 mm 2 mps 735 mmHg 92%
18:00 -8°C° 0 mm 2 mps 735 mmHg 92%
19:00 -9°C° 0 mm 2 mps 735 mmHg 92%
20:00 -9°C° 0 mm 2 mps 735 mmHg 93%
21:00 -9°C° 0 mm 2 mps 735 mmHg 92%
22:00 -8°C° 0 mm 1 mps 735 mmHg 92%
23:00 -8°C° 0 mm 1 mps 735 mmHg 91%
Show more